[[{"header":{"parameterUnit":"m.s-1","parameterCategory":1,"la1":30.2991,"la2":30.254,"lo1":-89.0895,"lo2":-89.0444,"dy":0.0017,"dx":0.0017,"nx":28,"ny":28,"refTime":"2025-07-31T09:00:00:Z","depth":0,"parameterNumber":2,"parameterNumberName":"U-component_of_WINDS"},"data":[0,0,0,0,0,0,0,0,0,0,0,0,0,0,0,0,0,0,0,0,0,0,0,0,0,0,0,0,0,0,0,0,0,0,0,0,0,0,0,0,0,0,0,0,0,0,0,0,0,0,0,0,0,0,0,0,0,0,2.9546,2.9548,0,2.9723,2.9725,2.9727,2.9713,2.971,2.9708,2.9705,2.9889,2.9896,2.9903,0,0,0,0,0,0,0,0,0,0,0,0,0,2.9199,2.9205,2.9546,2.9548,2.955,2.9723,2.9725,2.9727,2.9714,2.971,2.9707,2.9704,2.9886,2.9895,2.9904,0,0,0,0,0,0,0,0,0,0,0,0,0,2.936,2.9207,2.9546,2.9564,2.9568,2.9722,2.9725,2.9728,2.9714,2.971,2.9706,2.9702,2.9884,2.9894,2.9905,3.0054,0,0,2.9939,2.9944,0,0,0,0,0,0,0,0,2.9351,2.9373,2.9559,2.9563,2.9567,2.9692,2.967,2.9837,2.9715,2.9659,2.9705,2.9701,2.9827,2.9842,2.9884,3.0062,3.007,2.994,2.9947,2.9951,2.9955,0,0,0,0,0,0,0,2.934,2.9365,2.9616,2.9562,2.9567,2.9564,2.9583,2.9702,2.9763,2.9663,2.9663,2.9684,2.9828,2.9874,2.9888,3.0073,2.994,2.9949,2.9956,2.9961,3.0382,3.0386,0,0,0,0,0,0,2.9324,2.9356,2.961,2.9621,2.9447,2.9574,2.9595,2.9656,2.9762,2.9774,2.9687,2.9682,2.9857,2.9876,2.9895,3.0076,2.9951,2.9962,2.9968,3.0377,3.0383,3.0388,0,0,0,0,0,0,2.9317,2.9347,2.9603,2.9489,2.9521,2.9584,2.9653,2.9662,2.9707,2.9779,2.9791,2.9722,2.9854,2.9879,3.0014,3.0082,2.9967,2.9977,3.0372,3.0379,3.0385,3.0439,0,0,0,0,0,0,2.9307,2.9344,2.9401,2.949,2.9527,2.9719,2.9657,2.9668,2.9726,2.9721,2.9815,2.9827,2.9853,2.9998,3.0025,3.0095,2.9985,3.0366,3.0375,3.0383,3.0431,3.0446,3.046,0,0,0,0,0,2.9294,2.9409,2.9404,2.9434,2.9599,2.9723,2.9744,2.9771,2.9731,2.9789,2.9836,2.9824,3.007,3.0012,3.0042,3.0117,3.0362,3.0373,3.0383,3.0425,3.0443,3.0459,0,0,0,0,0,0,2.9327,2.9421,2.9416,2.9563,2.9635,2.972,2.9794,2.979,2.9876,2.9868,2.9899,2.992,3.0056,3.01,3.0033,3.0266,3.0211,3.0228,3.0232,3.0251,3.0265,3.0252,2.9995,0,0,0,0,0,2.9351,2.9443,2.9521,2.9643,2.9679,2.973,2.9785,2.98,2.9876,2.9907,2.9963,3.0038,3.0133,3.0194,3.0285,3.0437,3.0458,3.0504,3.0518,3.0529,3.0544,3.0628,3.065,3.0422,3.0421,3.0421,0,0,2.9402,2.9465,2.9521,2.9651,2.9709,2.9804,2.9756,2.9859,2.9931,2.9923,3.0053,3.0097,3.0183,3.0328,3.0394,3.0369,3.0611,3.0542,3.0551,3.0559,3.0641,3.0662,3.0682,3.0428,3.0427,3.0426,0,0,2.9544,2.9601,2.9709,2.9767,2.9855,2.9888,2.9914,3.0,3.0029,3.016,3.0156,3.0242,3.0404,3.0465,3.0518,3.0683,3.0676,3.0712,3.0787,3.0869,3.0887,3.0903,3.0962,3.0983,3.0726,3.0726,3.0726,0,2.9597,2.974,2.9765,2.9869,2.9926,2.9923,3.0033,3.0089,3.0202,3.0242,3.0211,3.0414,3.0472,3.0631,3.0671,3.0714,3.0745,3.0702,3.0882,3.0898,3.0914,3.0971,3.0993,3.073,3.073,3.0729,3.0729,0,2.98,2.99,2.9977,3.0085,3.0151,3.0258,3.03,3.0364,3.0373,3.0409,3.0544,3.0613,3.0717,3.0756,3.0766,3.0917,3.0899,3.0875,3.082,3.0939,3.0993,3.1015,3.0736,3.0734,3.0733,3.0732,0,0,2.9968,3.0089,3.0117,3.0166,3.0262,3.034,3.0446,3.0548,3.0603,3.0681,3.0772,3.0909,3.0887,3.0947,3.0964,3.1035,3.1163,3.1003,3.1005,3.1031,3.1334,3.1352,3.1376,3.1158,3.1163,3.1166,3.1327,0,3.012,3.0308,3.0334,3.0501,3.0593,3.0591,3.0684,3.0754,3.0791,3.0876,3.0917,3.1014,3.0978,3.1014,3.1085,3.1132,3.1224,3.1121,3.1244,3.1248,3.1223,3.1405,3.1424,3.1572,3.1348,3.1352,3.1354,0,3.0322,3.0405,3.0581,3.0664,3.0704,3.0787,3.0883,3.0963,3.1043,3.1065,3.1131,3.1139,3.1251,3.1191,3.1345,3.1275,3.1327,3.1358,3.1364,3.1377,3.1309,3.1423,3.162,3.1642,3.1388,3.1385,3.1383,0,3.0427,3.0583,3.0708,3.075,3.0851,3.091,3.0955,3.103,3.1089,3.1173,3.1212,3.1308,3.1361,3.1435,3.1469,3.1423,3.1622,3.1565,3.1645,3.1644,3.1687,3.1684,3.1896,3.172,3.172,3.1719,3.1719,0,3.0594,3.0702,3.0757,3.0834,3.0955,3.0984,3.1103,3.1146,3.1213,3.1299,3.1304,3.1385,3.1424,3.1512,3.1539,3.1663,3.1687,3.1709,3.1715,3.1709,3.1706,3.1743,3.1734,3.1725,3.1724,3.1723,3.1722,0,3.0732,3.0773,3.091,3.0994,3.1017,3.1103,3.1175,3.125,3.1287,3.1396,3.1423,3.1481,3.1584,3.1625,3.1752,3.177,3.1913,3.1911,3.1886,3.1888,3.1965,3.1957,3.2209,3.2243,3.2044,3.2046,3.2048,0,3.0836,3.0919,3.1012,3.1069,3.1116,3.1209,3.1269,3.1301,3.1364,3.1461,3.1525,3.1627,3.1711,3.1876,3.193,3.2027,3.2028,3.2109,3.2042,3.2033,3.2029,3.2024,3.2033,3.2121,3.2123,3.2125,3.2126,0,3.1017,3.1033,3.112,3.1214,3.1286,3.1362,3.1436,3.1483,3.1526,3.1597,3.1702,3.1767,3.1896,3.1998,3.2098,3.2145,3.2144,3.2147,3.217,3.2165,3.2147,3.2158,3.192,3.2141,3.2139,3.2138,3.2138,3.2137,3.1142,3.1215,3.1292,3.1388,3.1447,3.1516,3.1591,3.1637,3.1724,3.1831,3.1845,3.1957,3.2035,3.2169,3.222,3.2309,3.2288,3.2322,3.2331,3.2339,3.2344,3.2133,3.2328,3.2327,3.2327,3.2327,3.2326,0,3.1323,3.1372,3.146,3.1563,3.1639,3.163,3.1712,3.1776,3.1875,3.1947,3.2029,3.215,3.2249,3.2311,3.2411,3.247,3.2472,3.2496,3.2492,3.2503,3.2357,3.2327,3.2492,3.2492,3.2492,3.2492,3.2492,3.2492,3.1426,3.155,3.1575,3.1728,3.1777,3.1887,3.1934,3.1998,3.2056,3.219,3.2272,3.2311,3.2379,3.2484,3.2575,3.2591,3.2628,3.2653,3.2667,3.253,3.2513,3.2497,3.2468,3.266,3.2661,3.2805,3.2806,3.2807]},{"header":{"parameterUnit":"m.s-1","parameterCategory":1,"la1":30.2991,"la2":30.254,"lo1":-89.0895,"lo2":-89.0444,"dy":0.0017,"dx":0.0017,"nx":28,"ny":28,"refTime":"2025-07-31T09:00:00:Z","depth":0,"parameterNumber":3,"parameterNumberName":"V-component_of_WINDS"},"data":[0,0,0,0,0,0,0,0,0,0,0,0,0,0,0,0,0,0,0,0,0,0,0,0,0,0,0,0,0,0,0,0,0,0,0,0,0,0,0,0,0,0,0,0,0,0,0,0,0,0,0,0,0,0,0,0,0,0,-0.6224,-0.6224,0,-0.6202,-0.6201,-0.6201,-0.6228,-0.6229,-0.623,-0.6231,-0.6204,-0.6203,-0.6201,0,0,0,0,0,0,0,0,0,0,0,0,0,-0.6289,-0.6288,-0.6225,-0.6224,-0.6224,-0.6202,-0.6201,-0.6201,-0.6228,-0.6229,-0.623,-0.6232,-0.6205,-0.6203,-0.6201,0,0,0,0,0,0,0,0,0,0,0,0,0,-0.6263,-0.6287,-0.6225,-0.6235,-0.6235,-0.6202,-0.6201,-0.6201,-0.6228,-0.6229,-0.6231,-0.6232,-0.6206,-0.6203,-0.6201,-0.6155,0,0,-0.6193,-0.6192,0,0,0,0,0,0,0,0,-0.6264,-0.626,-0.6234,-0.6234,-0.6235,-0.6219,-0.6214,-0.6185,-0.6227,-0.623,-0.6231,-0.6233,-0.6208,-0.6205,-0.6198,-0.6154,-0.6153,-0.6193,-0.6191,-0.619,-0.619,0,0,0,0,0,0,0,-0.6266,-0.6262,-0.6215,-0.6233,-0.6234,-0.624,-0.6238,-0.6209,-0.6211,-0.623,-0.6232,-0.6229,-0.6209,-0.62,-0.6197,-0.6152,-0.6193,-0.6191,-0.6189,-0.6188,-0.6068,-0.6067,0,0,0,0,0,0,-0.6267,-0.6263,-0.6216,-0.6215,-0.6254,-0.6237,-0.6235,-0.6223,-0.6211,-0.6211,-0.6228,-0.6231,-0.6203,-0.62,-0.6196,-0.6141,-0.619,-0.6188,-0.6187,-0.607,-0.6068,-0.6066,0,0,0,0,0,0,-0.6268,-0.6263,-0.6217,-0.6239,-0.6234,-0.6235,-0.622,-0.6221,-0.6213,-0.621,-0.621,-0.6219,-0.6205,-0.62,-0.6165,-0.614,-0.6187,-0.6185,-0.6072,-0.6069,-0.6067,-0.603,0,0,0,0,0,0,-0.627,-0.6263,-0.6246,-0.6239,-0.6233,-0.6187,-0.6219,-0.622,-0.6209,-0.6212,-0.6201,-0.6201,-0.6205,-0.6169,-0.6163,-0.6138,-0.6183,-0.6074,-0.6071,-0.6068,-0.6033,-0.6026,-0.602,0,0,0,0,0,-0.6272,-0.6236,-0.6245,-0.6239,-0.6212,-0.6185,-0.6182,-0.6188,-0.6207,-0.6189,-0.6187,-0.6201,-0.6145,-0.6165,-0.6158,-0.6132,-0.6076,-0.6072,-0.6068,-0.6036,-0.6027,-0.602,0,0,0,0,0,0,-0.6239,-0.6235,-0.6245,-0.6206,-0.6196,-0.619,-0.6168,-0.6179,-0.6163,-0.6167,-0.6175,-0.6173,-0.6135,-0.6131,-0.6153,-0.6087,-0.6113,-0.6108,-0.6091,-0.6083,-0.6076,-0.6077,-0.6181,0,0,0,0,0,-0.6228,-0.6207,-0.6205,-0.617,-0.6165,-0.6167,-0.6156,-0.6162,-0.6152,-0.6147,-0.6143,-0.6131,-0.6111,-0.6097,-0.6078,-0.6033,-0.6031,-0.6012,-0.6006,-0.6001,-0.5995,-0.597,-0.5961,-0.6054,-0.6054,-0.6054,0,0,-0.6202,-0.6198,-0.6184,-0.6163,-0.6156,-0.6134,-0.6163,-0.6138,-0.6121,-0.6143,-0.611,-0.6106,-0.6094,-0.6054,-0.6036,-0.6049,-0.5969,-0.5996,-0.5992,-0.5989,-0.5965,-0.5956,-0.5949,-0.6051,-0.6052,-0.6052,0,0,-0.6145,-0.6141,-0.6111,-0.6103,-0.6093,-0.6095,-0.6088,-0.608,-0.6079,-0.6046,-0.6061,-0.6041,-0.6006,-0.5997,-0.5987,-0.5927,-0.5938,-0.5921,-0.5886,-0.5862,-0.5854,-0.5848,-0.5825,-0.5816,-0.5916,-0.5916,-0.5916,0,-0.6115,-0.6083,-0.6093,-0.6067,-0.6057,-0.6077,-0.6046,-0.6038,-0.6022,-0.6013,-0.6029,-0.5985,-0.5978,-0.5935,-0.5921,-0.5913,-0.5904,-0.5921,-0.5855,-0.5848,-0.5842,-0.582,-0.5812,-0.5913,-0.5914,-0.5914,-0.5914,0,-0.6046,-0.6023,-0.6,-0.5984,-0.5972,-0.5943,-0.5948,-0.5934,-0.5942,-0.5942,-0.5908,-0.5901,-0.588,-0.5871,-0.5878,-0.5829,-0.5837,-0.5854,-0.588,-0.5831,-0.581,-0.5802,-0.591,-0.5911,-0.5912,-0.5912,0,0,-0.5965,-0.5956,-0.5947,-0.594,-0.593,-0.5912,-0.5885,-0.5866,-0.5853,-0.5841,-0.5817,-0.5788,-0.5803,-0.5792,-0.5798,-0.5777,-0.5728,-0.5796,-0.5795,-0.5781,-0.5671,-0.5657,-0.5647,-0.5737,-0.5735,-0.5734,-0.5672,0,-0.5906,-0.5859,-0.5868,-0.5821,-0.5799,-0.5819,-0.5795,-0.5785,-0.5785,-0.5766,-0.5766,-0.5744,-0.5767,-0.576,-0.574,-0.5738,-0.5705,-0.5743,-0.5712,-0.5711,-0.5712,-0.5637,-0.5622,-0.5564,-0.5664,-0.5662,-0.5661,0,-0.5831,-0.5817,-0.5768,-0.5761,-0.5753,-0.5731,-0.5714,-0.5696,-0.5686,-0.5687,-0.5676,-0.5686,-0.5658,-0.5686,-0.5646,-0.5671,-0.566,-0.5657,-0.5655,-0.565,-0.5681,-0.5628,-0.5545,-0.5536,-0.5649,-0.565,-0.5651,0,-0.5774,-0.5743,-0.571,-0.5704,-0.5696,-0.5679,-0.5675,-0.5667,-0.5655,-0.564,-0.5632,-0.5614,-0.5603,-0.5589,-0.5594,-0.5614,-0.5552,-0.5581,-0.5551,-0.555,-0.5534,-0.5535,-0.5446,-0.5531,-0.5531,-0.5531,-0.5531,0,-0.5706,-0.5675,-0.5684,-0.5664,-0.5629,-0.564,-0.5605,-0.5603,-0.5596,-0.5574,-0.5591,-0.557,-0.5579,-0.5558,-0.5562,-0.5527,-0.5523,-0.5522,-0.5523,-0.5519,-0.5519,-0.551,-0.5513,-0.5529,-0.5529,-0.553,-0.553,0,-0.5636,-0.5641,-0.5606,-0.5602,-0.56,-0.5574,-0.557,-0.555,-0.5552,-0.5525,-0.5519,-0.5521,-0.5498,-0.5502,-0.5476,-0.5479,-0.5435,-0.5442,-0.5438,-0.5439,-0.5407,-0.5409,-0.5308,-0.5294,-0.539,-0.5389,-0.5388,0,-0.5591,-0.5567,-0.5561,-0.5548,-0.5543,-0.5522,-0.551,-0.552,-0.5506,-0.5494,-0.5475,-0.5453,-0.5436,-0.5398,-0.5397,-0.5377,-0.5382,-0.5348,-0.5379,-0.5376,-0.5379,-0.538,-0.5377,-0.5341,-0.534,-0.5339,-0.5339,0,-0.551,-0.5514,-0.5496,-0.5479,-0.5465,-0.5452,-0.5441,-0.5429,-0.5438,-0.5422,-0.5399,-0.5386,-0.536,-0.5338,-0.532,-0.5315,-0.5327,-0.5329,-0.5321,-0.5315,-0.5313,-0.5312,-0.5419,-0.5331,-0.5332,-0.5332,-0.5333,-0.5333,-0.5449,-0.5429,-0.5421,-0.5401,-0.5394,-0.5383,-0.5364,-0.5364,-0.5345,-0.5325,-0.5332,-0.5305,-0.5296,-0.5273,-0.5265,-0.5244,-0.5256,-0.5245,-0.5241,-0.5237,-0.5233,-0.5319,-0.5241,-0.5241,-0.5241,-0.5242,-0.5242,0,-0.5367,-0.5364,-0.5345,-0.5329,-0.5313,-0.5328,-0.5317,-0.5302,-0.5278,-0.5269,-0.5252,-0.5225,-0.5204,-0.5202,-0.5181,-0.5164,-0.517,-0.5159,-0.5159,-0.5157,-0.5224,-0.5232,-0.5155,-0.5155,-0.5155,-0.5155,-0.5155,-0.5155,-0.5322,-0.5289,-0.5292,-0.5254,-0.5251,-0.5225,-0.5217,-0.5207,-0.5199,-0.5168,-0.5151,-0.515,-0.5143,-0.5123,-0.5104,-0.5103,-0.5094,-0.508,-0.5082,-0.5144,-0.5152,-0.516,-0.5168,-0.5079,-0.5079,-0.5017,-0.5016,-0.5016]}]]